Location: Morisset
(33.1080°S, 151.4871°E)
Time: 09:10:18
(UTC+00:00)

SL-16 R/B - Pass Details

Date: 29 October 2020
Orbit: 843 x 847 km, 71.0° (Epoch: 27 November)

Event Time Altitude Azimuth Distance (km) Brightness Sun altitude
Rises 12:18:29 0° 212° (SSW) 3,436 6.3 -39.5°
Reaches altitude 10° 12:21:08 10° 220° (SW) 2,494 5.3 -39.7°
Enters shadow 12:23:18 21° 234° (SW) 1,816 4.3 -39.9°
